Location: Godiavel Galaoual
(15.2485°N, 12.6604°W)
Time: 01:56:59
(UTC+00:00)

Transit 4A - Pass Details

Date: 13 June 2021
Orbit: 872 x 972 km, 66.8° (Epoch: 29 July)

Event Time Altitude Azimuth Distance (km) Brightness Sun altitude
Rises 21:15:21 0° 348° (NNW) 3,456 11.6 -24.7°
Reaches altitude 10° 21:17:55 10° 355° (N) 2,524 10.7 -25.3°
Enters shadow 21:23:11 46° 58° (ENE) 1,174 8.2 -26.3°
Maximum altitude 21:23:30 46° 68° (ENE) 1,168 - -26.3°
Drops below altitude 10° 21:29:10 10° 140° (SE) 2,569 - -27.4°
Sets 21:31:47 0° 146° (SE) 3,524 - -27.9°
